Topeka, KS

12:15 PM CDT on May 27, 2018 (GMT -0500)
Billard Municipal

Weather History for KTOP - October, 2013

Change the Weather History Date:

Sunday, October 13, 2013

  Actual Average Record
Temperature  
Mean Temperature 55 °F 58 °F  
Max Temperature 72 °F 70 °F 91 °F (1975)
Min Temperature 38 °F 46 °F 26 °F (2006)
Degree Days  
Heating Degree Days 10 8  
Month to date heating degree days 47 89  
Since 1 July heating degree days 61 156  
Cooling Degree Days 0 1  
Month to date cooling degree days 37 19  
Year to date cooling degree days 1586 1412  
Growing Degree Days 6 (Base 50)    
Moisture  
Dew Point 38 °F    
Average Humidity 58    
Maximum Humidity 89    
Minimum Humidity 26    
Precipitation  
Precipitation 0.00 in 0.10 in 2.05 in (1930)
Month to date precipitation 1.04 1.38  
Year to date precipitation 28.78 31.61  
Snow  
Snow 0.00 in 0.10 in T in (1986)
Month to date snowfall 0.0 0.1  
Year to date snowfall 24.2 11.4  
Since 1 July snowfall 0.0 0.1  
Snow Depth 0.00 in    
Sea Level Pressure  
Sea Level Pressure 30.33 in    
Wind  
Wind Speed 6 mph (East)    
Max Wind Speed 18 mph    
Max Gust Speed 24 mph    
Visibility 9 miles    
Events      
T = Trace of Precipitation, MM = Missing Value Source: NWS Daily Summary

Daily Weather History Graph

Daily Weather History Graph

Search for Another Location

Airport or City:

Astronomy

Oct. 13, 2013 Rise Set
Actual Time 7:30 AM CDT 6:46 PM CDT
Civil Twilight 7:03 AM CDT 7:13 PM CDT
Nautical Twilight 6:32 AM CDT 7:44 PM CDT
Astronomical Twilight 6:01 AM CDT 8:14 PM CDT
Moon 3:36 PM CDT (10/13) 1:43 AM CDT (10/13)
Length of Visible Light 12h 09m
Length of Day
11h 15m
Waxing Gibbous, 69% of the Moon is Illuminated
Oct 13
Waxing Gibbous
Oct 18
Full
Oct 26
Last Quarter
Nov 3
New
Nov 9
First Quarter

Hourly Weather History & Observations

Time (CDT) Temp. Dew Point Humidity Pressure Visibility Wind Dir Wind Speed Gust Speed Precip Events Conditions
12:27 AM 46.9 °F 41.0 °F 80% 30.29 in 2.5 mi Calm Calm - N/A   Haze
12:34 AM 46.9 °F 41.0 °F 80% 30.29 in 6.0 mi Calm Calm - N/A   Haze
12:53 AM 46.0 °F 42.1 °F 86% 30.29 in 10.0 mi Calm Calm - N/A   Clear
1:53 AM 45.0 °F 41.0 °F 86% 30.30 in 10.0 mi Calm Calm - N/A   Clear
2:53 AM 44.1 °F 39.9 °F 85% 30.31 in 10.0 mi Calm Calm - N/A   Clear
3:53 AM 43.0 °F 39.9 °F 89% 30.30 in 10.0 mi Calm Calm - N/A   Clear
4:53 AM 41.0 °F 37.9 °F 89% 30.32 in 7.0 mi Calm Calm - N/A   Clear
5:02 AM 41.0 °F 37.9 °F 89% 30.32 in 1.8 mi Calm Calm - N/A   Clear
5:12 AM 42.1 °F 39.0 °F 89% 30.32 in 4.0 mi Calm Calm - N/A   Clear
5:53 AM 41.0 °F 37.9 °F 89% 30.33 in 10.0 mi Calm Calm - N/A   Clear
6:53 AM 41.0 °F 37.0 °F 86% 30.35 in 10.0 mi Calm Calm - N/A   Clear
7:53 AM 41.0 °F 37.9 °F 89% 30.38 in 10.0 mi Calm Calm - N/A   Clear
8:53 AM 46.9 °F 41.0 °F 80% 30.40 in 10.0 mi Calm Calm - N/A   Clear
9:53 AM 55.9 °F 39.9 °F 55% 30.41 in 10.0 mi East 8.1 mph - N/A   Clear
10:53 AM 63.0 °F 37.9 °F 40% 30.41 in 10.0 mi East 12.7 mph - N/A   Clear
11:53 AM 66.9 °F 34.0 °F 30% 30.40 in 10.0 mi East 16.1 mph - N/A   Clear
12:53 PM 70.0 °F 34.0 °F 27% 30.39 in 10.0 mi East 13.8 mph - N/A   Clear
1:53 PM 72.0 °F 35.1 °F 26% 30.35 in 10.0 mi East 13.8 mph 20.7 mph N/A   Clear
2:53 PM 72.0 °F 35.1 °F 26% 30.32 in 10.0 mi ENE 12.7 mph - N/A   Clear
3:53 PM 72.0 °F 35.1 °F 26% 30.30 in 10.0 mi East 12.7 mph - N/A   Clear
4:53 PM 71.1 °F 35.1 °F 27% 30.29 in 10.0 mi East 15.0 mph - N/A   Clear
5:53 PM 69.1 °F 37.0 °F 31% 30.28 in 10.0 mi East 11.5 mph - N/A   Clear
6:53 PM 63.0 °F 37.0 °F 38% 30.29 in 10.0 mi East 6.9 mph - N/A   Clear
7:53 PM 59.0 °F 39.0 °F 48% 30.30 in 10.0 mi East 5.8 mph - N/A   Clear
8:53 PM 55.9 °F 39.9 °F 55% 30.30 in 10.0 mi East 4.6 mph - N/A   Clear
9:53 PM 54.0 °F 39.9 °F 59% 30.30 in 10.0 mi East 4.6 mph - N/A   Clear
10:53 PM 53.1 °F 39.9 °F 61% 30.30 in 10.0 mi NNE 3.5 mph - N/A   Clear
11:53 PM 53.1 °F 39.0 °F 59% 30.28 in 10.0 mi East 5.8 mph - N/A   Clear